Quillayute, WA

1:30 PM PDT on September 23, 2017 (GMT -0700)
Quillayute

Weather History for KUIL - July, 2012

Change the Weather History Date:

Tuesday, July 24, 2012

  Actual Average Record
Temperature  
Mean Temperature 61 °F 60 °F  
Max Temperature 70 °F 68 °F 92 °F (1984)
Min Temperature 51 °F 51 °F 40 °F (1973)
Degree Days  
Heating Degree Days 4 6  
Month to date heating degree days 158  
Since 1 June heating degree days 452  
Since 1 July heating degree days 158  
Cooling Degree Days 0 0  
Month to date cooling degree days 0  
Year to date cooling degree days 4  
Since 1 June cooling degree days 3  
Growing Degree Days 10 (Base 50)    
Moisture  
Dew Point 53 °F    
Average Humidity 82    
Maximum Humidity 94    
Minimum Humidity 56    
Precipitation  
Precipitation 0.00 in 0.06 in 0.21 in (2015)
Month to date precipitation 1.59  
Year to date precipitation 53.84  
Sea Level Pressure  
Sea Level Pressure 30.11 in    
Wind  
Wind Speed 4 mph (NNW)    
Max Wind Speed 13 mph    
Max Gust Speed 18 mph    
Visibility 10 miles    
Events      
T = Trace of Precipitation, MM = Missing Value Source: NWS Daily Summary

Daily Weather History Graph

Daily Weather History Graph

Search for Another Location

Airport or City:

Trip Planner

Search our weather history database for the weather conditions in past years. The results will help you decide how hot, cold, wet, or windy it might be!

Date:

Astronomy

Jul. 24, 2012 Rise Set
Actual Time 5:45 AM PDT 9:03 PM PDT
Civil Twilight 5:07 AM PDT 9:40 PM PDT
Nautical Twilight 4:18 AM PDT 10:30 PM PDT
Astronomical Twilight 3:14 AM PDT 11:32 PM PDT
Moon 12:23 PM PDT (7/24) 11:18 PM PDT (7/24)
Length of Visible Light 16h 33m
Length of Day
15h 17m
Waxing Crescent, 32% of the Moon is Illuminated
Jul 24
Waxing Crescent
Jul 26
First Quarter
Aug 1
Full
Aug 9
Last Quarter
Aug 17
New

Hourly Weather History & Observations

Time (PDT) Temp. Dew Point Humidity Pressure Visibility Wind Dir Wind Speed Gust Speed Precip Events Conditions
12:07 AM 53.6 °F 51.8 °F 94% 30.20 in 10.0 mi Calm Calm - N/A   Overcast
12:53 AM 54.0 °F 52.0 °F 93% 30.19 in 10.0 mi NW 3.5 mph - N/A   Overcast
1:41 AM 53.6 °F 51.8 °F 94% 30.19 in 10.0 mi Calm Calm - N/A   Overcast
1:53 AM 54.0 °F 51.1 °F 90% 30.19 in 10.0 mi Calm Calm - N/A   Overcast
2:53 AM 54.0 °F 51.1 °F 90% 30.18 in 10.0 mi Calm Calm - N/A   Overcast
3:53 AM 54.0 °F 51.1 °F 90% 30.18 in 10.0 mi Calm Calm - N/A   Overcast
4:53 AM 53.1 °F 51.1 °F 93% 30.17 in 10.0 mi Calm Calm - N/A   Overcast
5:26 AM 51.8 °F 48.2 °F 88% 30.16 in 9.0 mi NNW 3.5 mph - N/A   Scattered Clouds
5:53 AM 51.1 °F 48.9 °F 92% 30.16 in 6.0 mi North 4.6 mph - N/A   Scattered Clouds
5:57 AM 51.8 °F 48.2 °F 88% 30.15 in 2.5 mi North 3.5 mph - N/A   Mostly Cloudy
6:31 AM 51.8 °F 48.2 °F 88% 30.15 in 3.0 mi North 3.5 mph - N/A   Overcast
6:53 AM 52.0 °F 50.0 °F 93% 30.16 in 10.0 mi North 4.6 mph - N/A   Overcast
7:50 AM 53.6 °F 50.0 °F 88% 30.15 in 10.0 mi North 3.5 mph - N/A   Overcast
7:53 AM 53.1 °F 50.0 °F 89% 30.15 in 10.0 mi Calm Calm - N/A   Overcast
8:20 AM 53.6 °F 51.8 °F 94% 30.15 in 10.0 mi NNE 3.5 mph - N/A   Overcast
8:53 AM 55.9 °F 52.0 °F 87% 30.15 in 10.0 mi NNE 3.5 mph - N/A   Overcast
9:19 AM 57.2 °F 51.8 °F 82% 30.14 in 10.0 mi NNW 3.5 mph - N/A   Overcast
9:53 AM 59.0 °F 53.1 °F 81% 30.14 in 10.0 mi Variable 3.5 mph - N/A   Overcast
10:00 AM 59.0 °F 53.6 °F 82% 30.13 in 10.0 mi North 3.5 mph - N/A   Overcast
10:53 AM 61.0 °F 55.0 °F 81% 30.12 in 10.0 mi NW 3.5 mph - N/A   Overcast
11:26 AM 64.4 °F 55.4 °F 73% 30.11 in 10.0 mi Variable 4.6 mph - N/A   Overcast
11:53 AM 64.9 °F 55.9 °F 73% 30.10 in 10.0 mi Variable 3.5 mph - N/A   Mostly Cloudy
12:06 PM 64.4 °F 57.2 °F 77% 30.10 in 10.0 mi West 5.8 mph - N/A   Overcast
12:36 PM 66.2 °F 57.2 °F 73% 30.09 in 10.0 mi Variable 3.5 mph - N/A   Scattered Clouds
12:53 PM 66.9 °F 57.9 °F 73% 30.09 in 10.0 mi WSW 9.2 mph - N/A   Clear
1:53 PM 68.0 °F 57.0 °F 68% 30.08 in 10.0 mi West 8.1 mph - N/A   Clear
2:53 PM 69.1 °F 55.9 °F 63% 30.07 in 10.0 mi WNW 8.1 mph - N/A   Scattered Clouds
3:53 PM 68.0 °F 57.0 °F 68% 30.06 in 10.0 mi WNW 11.5 mph 18.4 mph N/A   Clear
4:53 PM 68.0 °F 55.9 °F 65% 30.05 in 10.0 mi WNW 11.5 mph - N/A   Clear
5:53 PM 64.9 °F 54.0 °F 68% 30.04 in 10.0 mi WNW 9.2 mph - N/A   Clear
6:53 PM 62.1 °F 53.1 °F 72% 30.03 in 10.0 mi NW 9.2 mph - N/A   Clear
7:53 PM 59.0 °F 53.1 °F 81% 30.02 in 10.0 mi NW 6.9 mph - N/A   Clear
8:53 PM 55.9 °F 52.0 °F 87% 30.02 in 10.0 mi NW 4.6 mph - N/A   Clear
9:53 PM 54.0 °F 51.1 °F 90% 30.04 in 10.0 mi Calm Calm - N/A   Clear
10:53 PM 54.0 °F 51.1 °F 90% 30.04 in 10.0 mi Calm Calm - N/A   Clear
11:53 PM 53.1 °F 50.0 °F 89% 30.03 in 10.0 mi North 3.5 mph - N/A   Clear